Waarnemingen

Advertentie
Mijn weer
Ölands Norra Udde, Zweden (2575): temperatuur & dauwpunt: 18.10.2018 00:00:00 - 24.10.2018 00:00:00 (CEST)Ölands Norra Udde, Zweden (2575): windsnelheid & windstoten: 18.10.2018 00:00:00 - 24.10.2018 00:00:00 (CEST)Ölands Norra Udde, Zweden (2575): windrichting: 18.10.2018 00:00:00 - 24.10.2018 00:00:00 (CEST)Ölands Norra Udde, Zweden (2575): luchtdruk: 18.10.2018 00:00:00 - 24.10.2018 00:00:00 (CEST)Ölands Norra Udde, Zweden (2575): zicht: 18.10.2018 00:00:00 - 24.10.2018 00:00:00 (CEST)Ölands Norra Udde, Zweden (2575): neerslag: 18.10.2018 00:00:00 - 24.10.2018 00:00:00 (CEST)
Datum & Tijd tt [°C] td [°C] ff [km/u] ff [kn] fx [km/u] fx [kn] dd ppp [hPa] vv [km] rr [mm]
24.10.2018 00:00:00 7,4 2,7 54 29 76 41 NW 994,2 14 0,0
23.10.2018 23:00:00 7,5 3,4 55 30 76 41 NNW 993,5 13 0,0
23.10.2018 22:00:00 - - - - - - - - - -
23.10.2018 21:00:00 8,0 3,5 50 27 69 37 NNW 992,4 16 0,0
23.10.2018 20:00:00 8,2 3,8 35 19 60 32 NW 991,8 16 0,0
23.10.2018 19:00:00 8,5 3,9 47 26 60 32 NW 991,6 23 0,0
23.10.2018 18:00:00 8,6 5,2 35 19 55 30 NNW 990,9 11 0,0
23.10.2018 17:00:00 9,0 5,0 40 21 52 28 NNW 990,0 11 0,0
23.10.2018 16:00:00 9,5 5,7 32 17 43 23 NW 989,4 15 0,0
23.10.2018 15:00:00 10,0 6,2 27 15 40 21 NW 989,1 16 0,0
23.10.2018 14:00:00 10,0 6,2 28 15 40 21 WNW 989,2 14 0,0
23.10.2018 13:00:00 10,3 6,4 28 15 41 22 W 989,3 14 0,0
23.10.2018 12:00:00 10,1 7,0 32 17 41 22 WNW 989,5 11 0,0
23.10.2018 11:00:00 10,1 7,7 20 11 38 21 WZW 989,7 11 0,0
23.10.2018 10:00:00 9,7 7,5 21 11 49 27 WZW 990,1 11 0,0
23.10.2018 09:00:00 9,1 7,7 26 14 59 32 ZW 990,8 12 0,0
23.10.2018 08:00:00 8,3 6,9 32 18 66 36 ZZW 991,7 46 0,2
23.10.2018 07:00:00 7,8 6,3 37 20 66 36 ZZW 993,6 10 0,1
23.10.2018 06:00:00 7,6 5,6 41 22 61 33 Z 996,7 18 0,0
23.10.2018 05:00:00 7,2 5,2 40 21 56 31 Z 1000,3 17 0,2
23.10.2018 04:00:00 7,2 5,2 30 16 52 28 ZZW 1003,7 14 0,1
23.10.2018 03:00:00 8,6 4,8 30 16 52 28 ZZW 1006,6 19 0,0
23.10.2018 02:00:00 8,7 4,5 28 15 48 26 ZZW 1008,8 22 0,0
23.10.2018 01:00:00 8,2 4,6 27 15 48 26 ZW 1010,9 23 0,0
23.10.2018 00:00:00 8,0 4,2 26 14 41 22 ZW 1012,6 22 0,0
22.10.2018 23:00:00 8,3 4,1 25 14 39 21 WZW 1014,0 24 0,0
22.10.2018 22:00:00 8,2 3,6 22 12 39 21 WZW 1015,1 30 0,0
22.10.2018 21:00:00 8,4 3,4 19 11 39 21 WZW 1015,8 25 0,0
22.10.2018 20:00:00 9,0 3,0 22 12 39 21 WZW 1016,2 16 0,0
22.10.2018 19:00:00 9,3 2,8 19 11 36 19 WZW 1016,3 17 0,0
22.10.2018 18:00:00 9,8 3,3 19 11 47 26 WZW 1016,7 13 0,0
22.10.2018 17:00:00 10,5 3,1 24 13 47 26 W 1016,7 13 0,0
22.10.2018 16:00:00 10,8 3,8 23 13 40 22 W 1016,4 17 0,0
22.10.2018 15:00:00 11,3 3,3 31 17 40 22 W 1016,1 16 0,0
22.10.2018 14:00:00 11,3 4,5 24 13 42 23 W 1016,1 15 0,0
22.10.2018 13:00:00 11,1 3,9 29 16 42 23 W 1015,9 14 0,0
22.10.2018 12:00:00 10,8 5,3 22 12 39 21 W 1016,4 15 0,0
22.10.2018 11:00:00 10,4 5,4 18 10 39 21 WZW 1016,2 15 0,0
22.10.2018 10:00:00 10,1 5,7 23 12 40 21 WZW 1016,2 15 0,0
22.10.2018 09:00:00 9,8 5,8 21 12 40 21 WZW 1016,0 15 0,0
22.10.2018 08:00:00 10,2 6,9 22 12 35 19 W 1015,5 12 0,0
22.10.2018 07:00:00 11,0 7,5 18 10 38 20 W 1014,9 13 0,0
22.10.2018 06:00:00 11,7 8,2 19 11 39 21 W 1014,4 9 0,0
22.10.2018 05:00:00 12,6 10,7 24 13 42 23 ZW 1014,2 13 0,0
22.10.2018 04:00:00 12,9 10,6 23 13 44 24 ZZW 1014,2 12 0,0
22.10.2018 03:00:00 12,8 10,7 24 13 45 24 ZZW 1014,6 14 0,0
22.10.2018 02:00:00 12,4 10,5 32 17 50 27 ZZW 1014,8 10 0,0
22.10.2018 01:00:00 12,2 10,3 29 16 50 27 ZZW 1015,4 15 0,0
22.10.2018 00:00:00 12,2 10,1 31 17 50 27 ZZW 1016,2 13 0,0
21.10.2018 23:00:00 11,9 9,6 29 16 45 25 ZZW 1016,6 9 0,0
21.10.2018 22:00:00 11,6 9,2 25 14 45 25 ZZW 1017,5 12 0,0
21.10.2018 21:00:00 11,6 9,0 26 14 43 23 ZZW 1018,2 15 0,0
21.10.2018 20:00:00 11,6 8,6 26 14 42 23 ZZW 1018,7 12 0,0
21.10.2018 19:00:00 12,0 8,8 25 13 40 22 ZZW 1019,4 11 0,0
21.10.2018 18:00:00 12,1 8,6 23 12 37 20 ZZW 1019,6 15 0,0
21.10.2018 17:00:00 12,1 8,2 20 11 35 19 ZZW 1020,0 14 0,0
21.10.2018 16:00:00 12,2 7,3 21 11 35 19 ZZW 1020,8 16 0,0
21.10.2018 15:00:00 12,4 6,9 21 12 38 21 ZZW 1021,2 20 0,0
21.10.2018 14:00:00 11,4 7,1 23 13 40 21 ZZW 1021,9 17 0,0
21.10.2018 13:00:00 11,1 6,6 23 13 40 21 ZZW 1022,4 20 0,0
21.10.2018 12:00:00 9,2 6,6 20 11 37 20 ZW 1023,3 15 0,0
21.10.2018 11:00:00 9,4 7,2 21 12 35 19 ZW 1023,5 14 0,0
21.10.2018 10:00:00 8,4 7,6 13 7 22 12 ZZW 1023,9 11 0,0
21.10.2018 09:00:00 6,4 6,0 10 5 22 12 ZZW 1024,2 15 0,0
21.10.2018 08:00:00 5,9 5,5 13 7 22 12 ZW 1024,2 14 0,0
21.10.2018 07:00:00 6,1 5,7 9 5 17 9 ZZW 1024,3 9 0,0
21.10.2018 06:00:00 6,1 5,7 11 6 16 8 ZZW 1024,1 11 0,0
21.10.2018 05:00:00 5,9 5,5 8 4 12 6 Z 1024,2 8 0,0
21.10.2018 04:00:00 6,2 5,8 8 4 12 6 ZW 1024,3 12 0,0
21.10.2018 03:00:00 6,4 6,0 5 3 8 5 Z 1024,6 10 0,0
21.10.2018 02:00:00 6,4 5,8 6 3 11 6 ZZW 1024,5 10 0,0
21.10.2018 01:00:00 6,7 6,0 5 3 16 9 Z 1024,2 10 0,0
21.10.2018 00:00:00 7,4 6,3 8 5 18 10 WZW 1024,4 14 0,0
20.10.2018 23:00:00 7,7 6,3 7 4 21 12 W 1024,2 13 0,0
20.10.2018 22:00:00 8,6 7,2 16 9 34 18 W 1024,3 14 0,0
20.10.2018 21:00:00 8,5 7,0 11 6 34 18 W 1023,9 15 0,0
20.10.2018 20:00:00 8,0 7,1 6 3 7 4 Z 1023,5 16 0,0
20.10.2018 19:00:00 8,2 7,1 4 2 6 4 Z 1023,2 12 0,0
20.10.2018 18:00:00 9,0 7,1 4 2 9 5 Z 1023,0 6 0,0
20.10.2018 17:00:00 9,3 6,4 5 3 13 7 ZW 1022,5 13 0,0
20.10.2018 16:00:00 11,0 6,7 7 4 14 8 WZW 1022,3 13 0,0
20.10.2018 15:00:00 10,5 7,0 9 5 16 8 WZW 1022,5 12 0,0
20.10.2018 14:00:00 10,7 6,6 9 5 17 9 W 1022,5 9 0,0
20.10.2018 13:00:00 10,5 7,2 10 5 20 11 W 1022,2 13 0,0
20.10.2018 12:00:00 9,2 6,6 14 8 21 12 W 1022,2 10 0,0
20.10.2018 11:00:00 8,7 6,7 14 8 25 13 W 1022,2 12 0,0
20.10.2018 10:00:00 8,1 6,4 21 11 25 13 WNW 1021,9 12 0,0
20.10.2018 09:00:00 7,5 5,6 14 8 24 13 W 1021,6 14 0,0
20.10.2018 08:00:00 7,2 5,5 11 6 24 13 WZW 1021,2 22 0,0
20.10.2018 07:00:00 7,1 5,6 12 7 18 10 WZW 1021,1 18 0,0
20.10.2018 06:00:00 7,2 5,3 13 7 18 10 WZW 1020,9 16 0,0
20.10.2018 05:00:00 7,3 5,3 7 4 16 9 WZW 1021,1 25 0,0
20.10.2018 04:00:00 - - - - 14 7 - - - -
20.10.2018 03:00:00 6,8 4,6 9 5 16 8 WZW 1021,6 26 0,0
20.10.2018 02:00:00 7,5 4,8 10 6 16 8 WZW 1021,7 29 0,0
20.10.2018 01:00:00 6,7 5,2 8 4 16 8 ZW 1021,9 31 0,0
20.10.2018 00:00:00 7,3 6,2 10 5 16 8 ZW 1022,2 25 0,0
19.10.2018 23:00:00 6,7 5,3 7 4 16 8 ZZW 1022,3 24 0,0
19.10.2018 22:00:00 7,0 5,1 11 6 15 8 Z 1022,6 34 0,0
19.10.2018 21:00:00 7,1 5,4 10 5 14 8 ZZO 1022,8 36 0,0
19.10.2018 20:00:00 7,7 6,3 11 6 13 7 Z 1022,7 32 0,0
19.10.2018 19:00:00 7,6 6,5 8 5 12 7 Z 1022,7 50 0,0
19.10.2018 18:00:00 8,3 6,8 10 5 12 7 ZZO 1022,9 50 0,0
19.10.2018 17:00:00 8,8 6,4 8 4 10 6 ZZO 1023,0 30 0,0
19.10.2018 16:00:00 9,3 5,1 5 3 8 4 O 1023,2 11 0,0
19.10.2018 15:00:00 10,1 5,9 5 3 11 6 WNW 1023,4 11 0,0
19.10.2018 14:00:00 - - - - 11 6 - - - -
19.10.2018 13:00:00 9,7 5,7 8 5 11 6 W 1024,1 10 0,0
19.10.2018 12:00:00 8,4 5,9 7 4 13 7 W 1024,2 12 0,0
19.10.2018 11:00:00 8,1 5,9 9 5 13 7 W 1024,2 11 0,0
19.10.2018 10:00:00 7,6 6,1 10 6 15 8 W 1024,2 11 0,0
19.10.2018 09:00:00 7,2 5,7 10 5 16 9 W 1024,0 10 0,0
19.10.2018 08:00:00 7,2 5,7 13 7 18 10 W 1023,6 16 0,0
19.10.2018 07:00:00 6,9 5,4 11 6 18 10 WNW 1023,3 21 0,0
19.10.2018 06:00:00 - - - - 18 10 - - - -
19.10.2018 05:00:00 7,1 4,9 12 7 16 8 W 1022,9 22 0,0
19.10.2018 04:00:00 7,2 5,0 10 6 16 8 WNW 1022,7 26 0,0
19.10.2018 03:00:00 7,4 5,2 13 7 16 9 WNW 1022,8 20 0,0
19.10.2018 02:00:00 7,6 5,2 12 6 19 11 WNW 1022,8 50 0,0
19.10.2018 01:00:00 8,1 5,6 14 8 26 14 WNW 1022,9 50 0,0
19.10.2018 00:00:00 8,4 5,7 16 9 26 14 WNW 1022,4 50 0,0
18.10.2018 23:00:00 8,9 5,6 20 11 26 14 NW 1022,0 50 0,0
18.10.2018 22:00:00 9,2 5,9 19 11 24 13 WNW 1021,9 50 0,0
18.10.2018 21:00:00 9,6 6,1 16 9 23 12 WNW 1021,2 50 0,0
18.10.2018 20:00:00 9,8 6,1 18 10 23 12 WNW 1020,7 50 0,0
18.10.2018 19:00:00 10,2 6,2 17 9 24 13 WNW 1020,4 50 0,0
18.10.2018 18:00:00 10,5 6,8 20 11 24 13 NW 1019,8 50 0,0
18.10.2018 17:00:00 10,8 7,3 16 9 20 11 NNW 1019,1 21 0,0
18.10.2018 16:00:00 11,6 8,3 12 6 18 10 NW 1018,5 15 0,0
18.10.2018 15:00:00 13,0 9,1 8 5 18 10 W 1018,1 17 0,0
18.10.2018 14:00:00 12,1 9,7 11 6 19 11 W 1018,0 12 0,0
18.10.2018 13:00:00 13,3 11,5 12 6 21 11 W 1017,8 7 0,0
18.10.2018 12:00:00 12,7 11,8 14 8 21 11 W 1017,7 5 0,0
18.10.2018 11:00:00 12,7 11,9 11 6 18 10 WZW 1017,5 3,3 0,0
18.10.2018 10:00:00 12,4 11,8 10 6 18 10 WZW 1017,3 2,9 0,0
18.10.2018 09:00:00 12,0 11,4 12 7 21 11 WZW 1017,2 2,6 0,0
18.10.2018 08:00:00 11,6 11,0 11 6 21 11 ZW 1016,9 2,5 0,0
18.10.2018 07:00:00 11,3 10,7 11 6 20 11 WZW 1016,7 2,5 0,0
18.10.2018 06:00:00 11,0 10,2 9 5 20 11 ZZW 1016,8 3,6 0,0
18.10.2018 05:00:00 11,5 10,7 9 5 16 9 ZZW 1017,2 5 0,0
18.10.2018 04:00:00 11,3 10,7 9 5 14 7 ZZW 1017,3 4,8 0,0
18.10.2018 03:00:00 11,4 10,9 9 5 16 9 ZZW 1017,6 3,2 0,0
18.10.2018 02:00:00 11,7 11,2 11 6 16 9 Z 1018,0 2,9 0,0
18.10.2018 01:00:00 11,5 11,0 10 5 14 7 Z 1018,3 2,0 0,0
18.10.2018 00:00:00 11,2 10,6 9 5 17 9 ZZO 1018,5 1,9 0,0

tt = temperatuur
td = dauwpunt
ff = windsnelheid
fx = windstoten
dd = windrichting
ppp = luchtdruk
vv = zicht
rr = neerslag

Weerstations in de omgeving